"Pseudo-MPEC" for C2YQRL2

Created 2020 Aug 6 7:07:06 UT using Find_Orb

Click here for an explanation of pseudo-MPECs

 
 Astrometry: 
     C2YQRL2  C2020 08 01.44721 00 38 21.14 +25 14 56.9    ~81BM 20.6 GVNEOCPG96
     C2YQRL2  C2020 08 01.45587 00 38 22.21 +25 16 24.9    ~81BM 21.4 GVNEOCPG96
     C2YQRL2  C2020 08 01.46019 00 38 22.75 +25 17 07.9    ~81BM 20.2 GVNEOCPG96
     C2YQRL2  C2020 08 01.48015 00 38 25.21 +25 20 26.4    ~81Bq 21.9 GVNEOCPG96
     C2YQRL2  C2020 08 01.48055 00 38 25.24 +25 20 30.4    ~81Bq 19.9 GVNEOCPG96
     C2YQRL2  C2020 08 01.48096 00 38 25.30 +25 20 34.1    ~81Bq 20.5 GVNEOCPG96
     C2YQRL2  C2020 08 01.48136 00 38 25.35 +25 20 37.6    ~81Bq 21.3 GVNEOCPG96
     C2YQRL2  C2020 08 02.36818 00 45 22.39 +27 54 08.2    ~829q 20.7 GVNEOCPG96
     C2YQRL2  C2020 08 02.37305 00 45 23.53 +27 55 07.1    ~829q 20.0 GVNEOCPG96

Station data:
(G96) Mt. Lemmon Survey  (N32.442754 W110.788720)  US/Arizona.  Observers T.
   A. Pruyne, B. M. Africano, E. J. Christensen, G. A. Farneth, D. C. Fuls,
   A. R. Gibbs, A. D. Grauer, H. Gröller, J. A. Johnson, R. A. Kowalski, S.
   M. Larson, G. J. Leonard, D. Rankin, R. L. Seaman, F. C. Shelly. 1.5-m
   reflector + 10K CCD.

Orbital elements:  C2YQRL2
   Perihelion 2020 Dec 16.221388 +/- 0.0785 TT =  5:18:47 (JD 2459199.721388)
Epoch 2020 Aug  2.0 TT = JDT 2459063.5   Earth MOID: 0.0048   AutoNEOCP
M 213.42812912 +/- 0.31             (J2000 ecliptic)
n   1.07598280 +/- 0.00281          Peri.  180.48695 +/- 1.6
a   0.94318994 +/- 0.00164          Node   281.91566 +/- 1.2
e   0.0929957 +/- 0.00186           Incl.    0.49642 +/- 0.018
P   0.92/334.57d           H 28.1   G  0.15   U  8.8  
q 0.85547730 +/- 0.00324    Q 1.03090258 +/- 6.83e-5
From 9 observations 2020 Aug. 1-2 (22.2 hr); mean residual 0".18
Residuals in arcseconds: 
200801 G96  .06+  .21-    200801 G96  .13+  .21+    200801 G96  .01+  .49-    
200801 G96  .08-  .33+    200801 G96  .13-  .27+    200802 G96  .04-  .13+    
200801 G96  .01+  .05-    200801 G96  .00   .06-    200802 G96  .04+  .13-    

Ephemerides (geocentric):
Date (UTC) HH   RA              Dec         delta   r     elong  mag " sig PA
---- -- -- --  -------------   -----------  ------ ------ -----  --- ---- ---
2020 08 06 07  01 32 22.619   +42 58 11.84  .00913 1.0150  94.8 20.9 71.6  42
2020 08 06 08  01 33 09.505   +43 09 47.75  .00910 1.0150  94.6 20.9 73.3  42
2020 08 06 09  01 33 56.922   +43 21 25.88  .00908 1.0150  94.4 20.9 74.9  42
2020 08 06 10  01 34 44.877   +43 33 06.21  .00906 1.0149  94.2 20.9 76.6  43
2020 08 06 11  01 35 33.378   +43 44 48.70  .00904 1.0149  94.0 20.9 78.3  43
2020 08 06 12  01 36 22.435   +43 56 33.32  .00902 1.0148  93.8 20.9 80.1  43
2020 08 06 13  01 37 12.056   +44 08 20.03  .00900 1.0148  93.7 20.9 81.8  43
2020 08 06 14  01 38 02.249   +44 20 08.81  .00897 1.0148  93.5 20.9 83.6  43
2020 08 06 15  01 38 53.024   +44 31 59.62  .00895 1.0147  93.3 20.9 85.4  43
2020 08 06 16  01 39 44.390   +44 43 52.42  .00893 1.0147  93.1 20.9 87.3  43
2020 08 06 17  01 40 36.356   +44 55 47.17  .00891 1.0147  92.9 20.9 89.1  43
2020 08 06 18  01 41 28.931   +45 07 43.84  .00889 1.0146  92.7 20.9 91.0  43
2020 08 06 19  01 42 22.125   +45 19 42.37  .00887 1.0146  92.5 20.9 92.9  43
2020 08 06 20  01 43 15.948   +45 31 42.73  .00885 1.0145  92.3 20.9 94.8  43
2020 08 06 21  01 44 10.410   +45 43 44.87  .00883 1.0145  92.1 20.9 96.8  44
2020 08 06 22  01 45 05.521   +45 55 48.75  .00881 1.0145  91.9 20.9 98.7  44
2020 08 06 23  01 46 01.290   +46 07 54.32  .00879 1.0144  91.7 20.9  101  44
2020 08 07 00  01 46 57.729   +46 20 01.53  .00877 1.0144  91.5 20.9  103  44
2020 08 07 01  01 47 54.848   +46 32 10.33  .00875 1.0144  91.3 20.9  105  44
2020 08 07 02  01 48 52.657   +46 44 20.67  .00873 1.0143  91.1 21.0  107  44
2020 08 07 03  01 49 51.168   +46 56 32.48  .00871 1.0143  90.9 21.0  109  44
2020 08 07 04  01 50 50.392   +47 08 45.73  .00869 1.0142  90.7 21.0  111  44
2020 08 07 05  01 51 50.341   +47 21 00.34  .00867 1.0142  90.5 21.0  113  45
2020 08 07 06  01 52 51.024   +47 33 16.25  .00865 1.0142  90.3 21.0  115  45
2020 08 07 07  01 53 52.455   +47 45 33.42  .00863 1.0141  90.1 21.0  118  45
2020 08 07 08  01 54 54.645   +47 57 51.76  .00861 1.0141  89.9 21.0  120  45
2020 08 07 09  01 55 57.606   +48 10 11.23  .00859 1.0141  89.6 21.0  122  45
2020 08 07 10  01 57 01.350   +48 22 31.74  .00858 1.0140  89.4 21.0  124  45
2020 08 07 11  01 58 05.890   +48 34 53.23  .00856 1.0140  89.2 21.0  127  45
2020 08 07 12  01 59 11.238   +48 47 15.64  .00854 1.0139  89.0 21.0  129  46
2020 08 07 13  02 00 17.406   +48 59 38.87  .00852 1.0139  88.8 21.0  131  46
2020 08 07 14  02 01 24.409   +49 12 02.87  .00850 1.0139  88.6 21.0  134  46
2020 08 07 15  02 02 32.259   +49 24 27.54  .00849 1.0138  88.3 21.0  136  46
2020 08 07 16  02 03 40.969   +49 36 52.82  .00847 1.0138  88.1 21.0  138  46
2020 08 07 17  02 04 50.553   +49 49 18.62  .00845 1.0137  87.9 21.0  141  46
2020 08 07 18  02 06 01.024   +50 01 44.84  .00844 1.0137  87.7 21.0  143  47
2020 08 07 19  02 07 12.396   +50 14 11.42  .00842 1.0137  87.5 21.0  146  47
2020 08 07 20  02 08 24.684   +50 26 38.25  .00840 1.0136  87.2 21.0  148  47
2020 08 07 21  02 09 37.901   +50 39 05.24  .00838 1.0136  87.0 21.0  151  47
2020 08 07 22  02 10 52.062   +50 51 32.31  .00837 1.0136  86.8 21.0  153  47
2020 08 07 23  02 12 07.181   +51 03 59.35  .00835 1.0135  86.6 21.0  156  48
2020 08 08 00  02 13 23.274   +51 16 26.26  .00834 1.0135  86.3 21.1  159  48
2020 08 08 01  02 14 40.354   +51 28 52.95  .00832 1.0134  86.1 21.1  161  48
2020 08 08 02  02 15 58.437   +51 41 19.30  .00831 1.0134  85.9 21.1  164  48
2020 08 08 03  02 17 17.538   +51 53 45.21  .00829 1.0134  85.6 21.1  166  49
2020 08 08 04  02 18 37.673   +52 06 10.58  .00827 1.0133  85.4 21.1  169  49
2020 08 08 05  02 19 58.857   +52 18 35.28  .00826 1.0133  85.2 21.1  172  49
2020 08 08 06  02 21 21.105   +52 30 59.21  .00824 1.0132  84.9 21.1  175  49